Spokane Fairchild, WA

9:53 PM PDT on August 22, 2017 (GMT -0700)
Fairchild Air Force Base

Weather History for KSKA - April, 2014

Change the Weather History Date:

Thursday, April 17, 2014

  Actual Average Record
Temperature  
Mean Temperature 45 °F -  
Max Temperature 48 °F 54 °F 73 °F (1999)
Min Temperature 42 °F 34 °F 24 °F (2013)
Degree Days  
Heating Degree Days 20    
Moisture  
Dew Point 44 °F    
Average Humidity 95    
Maximum Humidity 100    
Minimum Humidity 81    
Precipitation  
Precipitation 0.21 in - - ()
Sea Level Pressure  
Sea Level Pressure 29.81 in    
Wind  
Wind Speed 9 mph (SSW)    
Max Wind Speed 21 mph    
Max Gust Speed 25 mph    
Visibility 10 miles    
Events Rain    
Averages and records for this station are not official NWS values.
T = Trace of Precipitation, MM = Missing Value Source: NWS Daily Summary

Daily Weather History Graph

Daily Weather History Graph

Search for Another Location

Airport or City:

Trip Planner

Search our weather history database for the weather conditions in past years. The results will help you decide how hot, cold, wet, or windy it might be!

Date:

Astronomy

Apr. 17, 2014 Rise Set
Actual Time 5:57 AM PDT 7:43 PM PDT
Civil Twilight 5:25 AM PDT 8:16 PM PDT
Nautical Twilight 4:45 AM PDT 8:56 PM PDT
Astronomical Twilight 4:01 AM PDT 9:40 PM PDT
Moon 10:42 PM PDT (4/17) 7:25 AM PDT (4/17)
Length of Visible Light 14h 50m
Length of Day
13h 45m
Waning Gibbous, 93% of the Moon is Illuminated
Apr 17
Waning Gibbous
Apr 22
Last Quarter
Apr 28
New
May 6
First Quarter
May 14
Full

Hourly Weather History & Observations

Time (PDT) Temp. Windchill Dew Point Humidity Pressure Visibility Wind Dir Wind Speed Gust Speed Precip Events Conditions
12:37 AM 44.6 °F 40.7 °F 39.2 °F 81% 29.94 in 10.0 mi SSE 6.9 mph - N/A   Mostly Cloudy
12:53 AM 44.6 °F 40.2 °F 39.2 °F 81% 29.93 in 10.0 mi SSE 8.1 mph - N/A   Overcast
12:58 AM 44.2 °F 40.3 °F 40.3 °F 86% 29.98 in 10.0 mi SSE 6.9 mph - 0.00 in   Overcast
1:33 AM 44.6 °F 41.4 °F 41.0 °F 87% 29.92 in 10.0 mi SSE 5.8 mph - N/A Rain Light Rain
1:58 AM 43.5 °F 40.1 °F 40.8 °F 90% 29.94 in 10.0 mi SE 5.8 mph - 0.00 in Rain Light Rain
1:59 AM 44.6 °F 41.4 °F 41.0 °F 87% 29.91 in 10.0 mi SSE 5.8 mph - N/A   Scattered Clouds
2:11 AM 42.8 °F 38.6 °F 41.0 °F 93% 29.91 in 10.0 mi SSE 6.9 mph - N/A Rain Light Rain
2:58 AM 43.3 °F 39.2 °F 41.2 °F 92% 29.93 in 10.0 mi SSE 6.9 mph - 0.00 in Rain Light Rain
3:58 AM 42.6 °F 39.0 °F 41.0 °F 94% 29.91 in 10.0 mi South 5.8 mph - 0.01 in Rain Light Rain
4:58 AM 42.4 °F 37.5 °F 41.2 °F 95% 29.90 in 10.0 mi South 8.1 mph - 0.00 in Rain Light Rain
5:28 AM 42.8 °F 37.5 °F 41.0 °F 93% 29.87 in 10.0 mi South 9.2 mph - N/A Rain Light Rain
5:33 AM 42.8 °F 38.0 °F 41.0 °F 93% 29.86 in 10.0 mi South 8.1 mph - N/A Rain Light Rain
5:53 AM 42.8 °F 37.5 °F 41.0 °F 93% 29.86 in 10.0 mi South 9.2 mph - N/A Rain Light Rain
5:58 AM 42.4 °F 37.5 °F 41.5 °F 97% 29.89 in 10.0 mi South 8.1 mph - 0.02 in Rain Light Rain
6:03 AM 42.8 °F 38.0 °F 41.0 °F 93% 29.86 in 10.0 mi South 8.1 mph - N/A Rain Light Rain
6:20 AM 42.8 °F 37.5 °F 42.8 °F 100% 29.85 in 9.0 mi South 9.2 mph - N/A Rain Light Rain
6:25 AM 42.8 °F 37.5 °F 42.8 °F 100% 29.85 in 9.0 mi South 9.2 mph - N/A Rain Light Rain
6:35 AM 42.8 °F 38.0 °F 42.8 °F 100% 29.85 in 10.0 mi South 8.1 mph - N/A Rain Light Rain
6:55 AM 42.8 °F 38.0 °F 42.8 °F 100% 29.84 in 8.0 mi South 8.1 mph - N/A Rain Light Rain
6:58 AM 42.6 °F 37.8 °F 42.4 °F 99% 29.87 in 7.0 mi South 8.1 mph - 0.02 in Rain Light Rain
7:58 AM 43.3 °F 38.1 °F 43.2 °F 99% 29.87 in 10.0 mi South 9.2 mph - 0.02 in Rain Light Rain
8:03 AM 42.8 °F 36.6 °F 42.8 °F 100% 29.84 in 10.0 mi South 11.5 mph - N/A Rain Light Rain
8:38 AM 44.6 °F 38.8 °F 44.6 °F 100% 29.83 in 10.0 mi South 11.5 mph - N/A Rain Light Rain
8:58 AM 44.8 °F 39.4 °F 44.6 °F 99% 29.86 in 10.0 mi South 10.4 mph - 0.00 in Rain Light Rain
9:23 AM 44.6 °F 37.8 °F 44.6 °F 100% 29.83 in 10.0 mi SSW 15.0 mph - N/A Rain Light Rain
9:58 AM 45.5 °F 39.2 °F 44.4 °F 96% 29.86 in 10.0 mi SSW 13.8 mph - 0.01 in Rain Light Rain
10:03 AM 46.4 °F 41.5 °F 44.6 °F 93% 29.83 in 10.0 mi SSW 10.4 mph - N/A Rain Light Rain
10:08 AM 44.6 °F 38.1 °F 44.6 °F 100% 29.83 in 9.0 mi SSW 13.8 mph - N/A Rain Light Rain
10:58 AM 46.4 °F 41.5 °F 45.0 °F 95% 29.86 in 10.0 mi SSW 10.4 mph - 0.02 in Rain Light Rain
11:08 AM 46.4 °F 41.5 °F 44.6 °F 93% 29.83 in 10.0 mi SSW 10.4 mph - N/A Rain Light Rain
11:18 AM 46.4 °F 41.5 °F 46.4 °F 100% 29.83 in 10.0 mi SSW 10.4 mph - N/A Rain Light Rain
11:23 AM 46.4 °F 41.9 °F 46.4 °F 100% 29.82 in 10.0 mi SSW 9.2 mph - N/A Rain Light Rain
11:33 AM 46.4 °F 41.9 °F 44.6 °F 93% 29.83 in 10.0 mi South 9.2 mph - N/A Rain Light Rain
11:58 AM 47.1 °F - 45.3 °F 93% 29.85 in 10.0 mi South 9.2 mph - 0.01 in Rain Light Rain
12:18 PM 48.2 °F - 46.4 °F 93% 29.82 in 10.0 mi SSW 11.5 mph - N/A Rain Light Rain
12:33 PM 48.2 °F - 46.4 °F 93% 29.82 in 10.0 mi SSW 9.2 mph - N/A Rain Light Rain
12:38 PM 48.2 °F - 46.4 °F 93% 29.81 in 10.0 mi SSW 9.2 mph - N/A Rain Light Rain
12:43 PM 48.2 °F - 46.4 °F 93% 29.81 in 10.0 mi South 8.1 mph - N/A Rain Light Rain
12:58 PM 48.2 °F - 46.4 °F 93% 29.84 in 10.0 mi SSW 10.4 mph - 0.02 in Rain Light Rain
1:03 PM 48.2 °F - 46.4 °F 93% 29.81 in 10.0 mi SW 9.2 mph - N/A Rain Light Rain
1:08 PM 48.2 °F - 46.4 °F 93% 29.81 in 10.0 mi SW 9.2 mph - N/A Rain Light Rain
1:13 PM 48.2 °F - 46.4 °F 93% 29.81 in 10.0 mi SSW 9.2 mph - N/A Rain Light Rain
1:18 PM 48.2 °F - 46.4 °F 93% 29.81 in 10.0 mi SSW 8.1 mph - N/A Rain Light Rain
1:23 PM 48.2 °F - 46.4 °F 93% 29.80 in 10.0 mi SW 8.1 mph - N/A Rain Light Rain
1:28 PM 48.2 °F - 46.4 °F 93% 29.81 in 10.0 mi SSW 8.1 mph - N/A Rain Light Rain
1:33 PM 48.2 °F - 46.4 °F 93% 29.81 in 10.0 mi SSW 6.9 mph - N/A Rain Light Rain
1:58 PM 48.4 °F - 45.5 °F 90% 29.83 in 10.0 mi SSW 8.1 mph - 0.00 in Rain Light Rain
2:03 PM 48.2 °F - 46.4 °F 93% 29.80 in 10.0 mi SSW 9.2 mph - N/A Rain Light Rain
2:23 PM 48.2 °F - 44.6 °F 87% 29.80 in 10.0 mi SSW 9.2 mph - N/A Rain Light Rain
2:28 PM 48.2 °F - 44.6 °F 87% 29.80 in 10.0 mi SSW 9.2 mph - N/A Rain Light Rain
2:43 PM 48.2 °F - 44.6 °F 87% 29.79 in 10.0 mi SW 8.1 mph - N/A Rain Light Rain
2:48 PM 48.2 °F - 44.6 °F 87% 29.79 in 10.0 mi SW 5.8 mph - N/A Rain Light Rain
2:58 PM 48.7 °F - 45.3 °F 88% 29.81 in 10.0 mi SSW 6.9 mph - 0.01 in Rain Light Rain
3:13 PM 48.2 °F - 46.4 °F 93% 29.78 in 10.0 mi South 8.1 mph - N/A Rain Light Rain
3:18 PM 48.2 °F - 46.4 °F 93% 29.78 in 10.0 mi SSW 8.1 mph - N/A Rain Light Rain
3:33 PM 48.2 °F - 46.4 °F 93% 29.77 in 10.0 mi South 8.1 mph - N/A Rain Light Rain
3:34 PM 48.2 °F - 46.4 °F 93% 29.77 in 10.0 mi South 8.1 mph - N/A Rain Light Rain
3:44 PM 48.2 °F - 44.6 °F 87% 29.77 in 10.0 mi South 9.2 mph - N/A Rain Light Rain
3:58 PM 48.2 °F - 46.4 °F 93% 29.80 in 10.0 mi South 9.2 mph - 0.01 in Rain Light Rain
4:03 PM 48.2 °F - 46.4 °F 93% 29.77 in 10.0 mi SSW 9.2 mph - N/A Rain Light Rain
4:08 PM 48.2 °F - 46.4 °F 93% 29.77 in 10.0 mi SSW 10.4 mph - N/A Rain Light Rain
4:13 PM 48.2 °F - 46.4 °F 93% 29.77 in 10.0 mi SSW 9.2 mph - N/A Rain Light Rain
4:18 PM 48.2 °F - 46.4 °F 93% 29.77 in 10.0 mi SSW 8.1 mph - N/A Rain Light Rain
4:58 PM 48.0 °F - 46.4 °F 94% 29.80 in 10.0 mi South 9.2 mph - 0.00 in Rain Light Rain
5:33 PM 48.2 °F - 46.4 °F 93% 29.76 in 9.0 mi SSW 6.9 mph - N/A Rain Light Rain
5:58 PM 47.1 °F - 46.2 °F 97% 29.78 in 7.0 mi SSW 9.2 mph - 0.02 in Rain Light Rain
6:28 PM 46.4 °F 42.4 °F 44.6 °F 93% 29.75 in 10.0 mi SSW 8.1 mph - N/A Rain Light Rain
6:33 PM 46.4 °F 42.4 °F 46.4 °F 100% 29.75 in 10.0 mi SSW 8.1 mph - N/A Rain Light Rain
6:38 PM 46.4 °F 41.5 °F 46.4 °F 100% 29.75 in 10.0 mi SSW 10.4 mph - N/A Rain Light Rain
6:43 PM 46.4 °F 41.5 °F 46.4 °F 100% 29.75 in 10.0 mi SW 10.4 mph - N/A Rain Light Rain
6:48 PM 46.4 °F 41.9 °F 44.6 °F 93% 29.75 in 10.0 mi SW 9.2 mph - N/A Rain Light Rain
6:53 PM 46.4 °F 41.5 °F 46.4 °F 100% 29.75 in 10.0 mi SW 10.4 mph - N/A Rain Light Rain
6:58 PM 46.2 °F 41.7 °F 45.7 °F 98% 29.78 in 10.0 mi SSW 9.2 mph - 0.02 in Rain Light Rain
7:03 PM 46.4 °F 42.9 °F 46.4 °F 100% 29.75 in 10.0 mi SSW 6.9 mph - N/A Rain Light Rain
7:08 PM 46.4 °F 41.9 °F 46.4 °F 100% 29.74 in 10.0 mi SSW 9.2 mph - N/A Rain Light Rain
7:13 PM 46.4 °F 41.5 °F 46.4 °F 100% 29.74 in 10.0 mi SSW 10.4 mph - N/A Rain Light Rain
7:18 PM 46.4 °F 41.1 °F 46.4 °F 100% 29.74 in 10.0 mi SSW 11.5 mph - N/A Rain Light Rain
7:43 PM 46.4 °F 41.5 °F 44.6 °F 93% 29.74 in 10.0 mi SSW 10.4 mph - N/A Rain Light Rain
7:58 PM 45.9 °F 40.8 °F 45.5 °F 99% 29.77 in 10.0 mi SSW 10.4 mph - 0.00 in Rain Light Rain
8:33 PM 46.4 °F 39.5 °F 44.6 °F 93% 29.74 in 9.0 mi SSW 17.3 mph 24.2 mph N/A Rain Light Rain
8:43 PM 44.6 °F 37.4 °F 44.6 °F 100% 29.75 in 10.0 mi SSW 16.1 mph - N/A Rain Light Rain
8:48 PM 44.6 °F 37.8 °F 44.6 °F 100% 29.75 in 10.0 mi SSW 15.0 mph - N/A   Overcast
8:49 PM 44.6 °F 38.1 °F 44.6 °F 100% 29.75 in 10.0 mi SSW 13.8 mph - N/A Rain Light Rain
8:52 PM 44.6 °F 38.1 °F 44.6 °F 100% 29.75 in 10.0 mi SSW 13.8 mph - N/A   Overcast
8:58 PM 45.3 °F 37.6 °F 44.2 °F 96% 29.78 in 10.0 mi SSW 19.6 mph 24.2 mph 0.02 in   Overcast
9:08 PM 44.6 °F 38.4 °F 44.6 °F 100% 29.74 in 10.0 mi SSW 12.7 mph 24.2 mph N/A   Overcast
9:18 PM 44.6 °F 38.4 °F 44.6 °F 100% 29.74 in 10.0 mi SSW 12.7 mph - N/A   Overcast
9:58 PM 45.1 °F 37.3 °F 44.1 °F 96% 29.76 in 10.0 mi SSW 19.6 mph 25.3 mph N/A   Overcast
10:33 PM 44.6 °F 38.1 °F 44.6 °F 100% 29.73 in 10.0 mi SSW 13.8 mph 21.9 mph N/A   Overcast
10:58 PM 45.1 °F 37.1 °F 43.9 °F 95% 29.75 in 10.0 mi SSW 20.7 mph - N/A   Overcast
11:03 PM 44.6 °F 37.2 °F 42.8 °F 93% 29.73 in 10.0 mi SSW 17.3 mph - N/A   Overcast
11:08 PM 44.6 °F 36.9 °F 42.8 °F 93% 29.72 in 10.0 mi SSW 18.4 mph 24.2 mph N/A   Overcast
11:38 PM 44.6 °F 37.2 °F 42.8 °F 93% 29.72 in 10.0 mi SSW 17.3 mph 25.3 mph N/A   Overcast
11:53 PM 44.6 °F 36.9 °F 42.8 °F 93% 29.72 in 10.0 mi SSW 18.4 mph 25.3 mph N/A   Overcast
11:58 PM 45.0 °F 38.2 °F 43.0 °F 93% 29.75 in 10.0 mi SSW 15.0 mph 25.3 mph N/A   Overcast